Time,TemperatureF,DewpointF,PressureIn,WindDirection,WindDirectionDegrees,WindSpeedMPH,WindSpeedGustMPH,Humidity,HourlyPrecipIn,Conditions,Clouds,dailyrainin,SoftwareType,DateUTC
2013-06-05 00:00:00,65.5,55.0,29.54,ENE,68,2.0,3.0,69,0.00,,,0.00,meteohub,2013-06-05 05:00:00,
2013-06-05 00:05:00,65.5,55.0,29.51,NE,45,2.0,3.0,69,0.00,,,0.00,meteohub,2013-06-05 05:05:00,
2013-06-05 00:10:00,65.5,55.0,29.51,NE,45,3.0,3.0,69,0.00,,,0.00,meteohub,2013-06-05 05:10:00,
2013-06-05 00:15:00,65.5,55.0,29.51,NE,45,2.0,3.0,69,0.00,,,0.00,meteohub,2013-06-05 05:15:00,
2013-06-05 00:21:00,65.5,55.0,29.51,ENE,68,2.0,3.0,69,0.00,,,0.00,meteohub,2013-06-05 05:21:00,
2013-06-05 00:26:00,65.5,55.0,29.51,ENE,68,2.0,3.0,69,0.00,,,0.00,meteohub,2013-06-05 05:26:00,
2013-06-05 00:31:00,65.5,55.0,29.51,NE,45,2.0,3.0,69,0.00,,,0.00,meteohub,2013-06-05 05:31:00,
2013-06-05 00:36:00,65.3,54.9,29.51,ENE,68,2.0,3.0,69,0.00,,,0.00,meteohub,2013-06-05 05:36:00,
2013-06-05 00:41:00,65.3,54.9,29.51,NE,45,2.0,3.0,69,0.00,,,0.00,meteohub,2013-06-05 05:41:00,
2013-06-05 00:46:00,65.1,55.0,29.51,NE,45,0.0,3.0,70,0.00,,,0.00,meteohub,2013-06-05 05:46:00,
2013-06-05 00:52:00,64.9,54.9,29.51,NE,45,2.0,2.0,70,0.00,,,0.00,meteohub,2013-06-05 05:52:00,
2013-06-05 00:57:00,64.9,54.9,29.51,NE,45,1.0,2.0,70,0.00,,,0.00,meteohub,2013-06-05 05:57:00,
2013-06-05 01:02:00,64.6,54.5,29.51,NE,45,2.0,2.0,70,0.00,,,0.00,meteohub,2013-06-05 06:02:00,
2013-06-05 01:07:00,64.4,54.5,29.51,NE,45,3.0,3.0,70,0.00,,,0.00,meteohub,2013-06-05 06:07:00,
2013-06-05 01:12:00,64.8,54.7,29.51,ENE,68,3.0,4.0,70,0.00,,,0.00,meteohub,2013-06-05 06:12:00,
2013-06-05 01:17:00,64.9,54.9,29.51,NE,45,2.0,4.0,70,0.00,,,0.00,meteohub,2013-06-05 06:17:00,
2013-06-05 01:22:00,64.8,54.7,29.48,NE,45,3.0,4.0,70,0.00,,,0.00,meteohub,2013-06-05 06:22:00,
2013-06-05 01:27:00,64.8,54.7,29.48,ENE,68,5.0,5.0,70,0.00,,,0.00,meteohub,2013-06-05 06:27:00,
2013-06-05 01:32:00,64.8,54.7,29.48,NNE,22,2.0,5.0,70,0.00,,,0.00,meteohub,2013-06-05 06:32:00,
2013-06-05 01:37:00,64.6,54.5,29.48,NE,45,2.0,5.0,70,0.00,,,0.00,meteohub,2013-06-05 06:37:00,
2013-06-05 01:42:00,64.6,54.5,29.48,NE,45,3.0,5.0,70,0.00,,,0.00,meteohub,2013-06-05 06:42:00,
2013-06-05 01:47:00,64.4,54.5,29.48,NE,45,3.0,3.0,70,0.00,,,0.00,meteohub,2013-06-05 06:47:00,
2013-06-05 01:52:00,64.4,54.5,29.48,ENE,68,2.0,3.0,70,0.00,,,0.00,meteohub,2013-06-05 06:52:00,
2013-06-05 01:57:00,64.2,54.7,29.48,NE,45,1.0,3.0,71,0.00,,,0.00,meteohub,2013-06-05 06:57:00,
2013-06-05 02:02:00,64.0,54.9,29.48,ENE,68,0.0,3.0,72,0.00,,,0.00,meteohub,2013-06-05 07:02:00,
2013-06-05 02:07:00,63.5,54.3,29.48,NNE,22,0.0,3.0,72,0.00,,,0.00,meteohub,2013-06-05 07:07:00,
2013-06-05 02:12:00,63.3,54.5,29.48,NNE,22,0.0,2.0,73,0.00,,,0.00,meteohub,2013-06-05 07:12:00,
2013-06-05 02:17:00,63.1,54.3,29.48,NE,45,0.0,2.0,73,0.00,,,0.00,meteohub,2013-06-05 07:17:00,
2013-06-05 02:22:00,63.0,54.1,29.48,East,90,0.0,1.0,73,0.00,,,0.00,meteohub,2013-06-05 07:22:00,
2013-06-05 02:27:00,62.8,54.3,29.48,ESE,112,0.0,2.0,74,0.00,,,0.00,meteohub,2013-06-05 07:27:00,
2013-06-05 02:32:00,62.6,54.1,29.48,SE,135,0.0,2.0,74,0.00,,,0.00,meteohub,2013-06-05 07:32:00,
2013-06-05 02:37:00,62.4,54.3,29.48,SE,135,0.0,2.0,75,0.00,,,0.00,meteohub,2013-06-05 07:37:00,
2013-06-05 02:42:00,62.2,54.5,29.48,ESE,112,1.0,1.0,76,0.00,,,0.00,meteohub,2013-06-05 07:42:00,
2013-06-05 02:47:00,62.2,54.5,29.48,ESE,112,0.0,1.0,76,0.00,,,0.00,meteohub,2013-06-05 07:47:00,
2013-06-05 02:52:00,62.1,54.5,29.48,ESE,112,0.0,1.0,76,0.00,,,0.00,meteohub,2013-06-05 07:52:00,
2013-06-05 02:57:00,61.9,54.7,29.48,ESE,112,0.0,2.0,77,0.00,,,0.00,meteohub,2013-06-05 07:57:00,
2013-06-05 03:02:00,61.9,55.0,29.48,ESE,112,0.0,2.0,78,0.00,,,0.00,meteohub,2013-06-05 08:02:00,
2013-06-05 03:07:00,61.5,54.7,29.48,ESE,112,0.0,2.0,78,0.00,,,0.00,meteohub,2013-06-05 08:07:00,
2013-06-05 03:12:00,61.5,54.7,29.48,ESE,112,0.0,0.0,78,0.00,,,0.00,meteohub,2013-06-05 08:12:00,
2013-06-05 03:17:00,61.3,54.9,29.48,ESE,112,0.0,1.0,79,0.00,,,0.00,meteohub,2013-06-05 08:17:00,
2013-06-05 03:22:00,61.3,54.9,29.48,ESE,112,0.0,1.0,79,0.00,,,0.00,meteohub,2013-06-05 08:22:00,
2013-06-05 03:27:00,61.2,54.9,29.48,ESE,112,0.0,1.0,80,0.00,,,0.00,meteohub,2013-06-05 08:27:00,
2013-06-05 03:32:00,61.2,54.7,29.48,ESE,112,0.0,1.0,79,0.00,,,0.00,meteohub,2013-06-05 08:32:00,
2013-06-05 03:37:00,61.2,54.9,29.48,ESE,112,0.0,0.0,80,0.00,,,0.00,meteohub,2013-06-05 08:37:00,
2013-06-05 03:42:00,61.0,54.9,29.48,ESE,112,0.0,0.0,80,0.00,,,0.00,meteohub,2013-06-05 08:42:00,
2013-06-05 03:48:00,61.0,54.9,29.48,ESE,112,0.0,0.0,80,0.00,,,0.00,meteohub,2013-06-05 08:48:00,
2013-06-05 03:53:00,61.0,54.9,29.48,ESE,112,0.0,0.0,80,0.00,,,0.00,meteohub,2013-06-05 08:53:00,
2013-06-05 03:58:00,60.8,54.9,29.48,ESE,112,0.0,0.0,81,0.00,,,0.00,meteohub,2013-06-05 08:58:00,
2013-06-05 04:03:00,60.6,54.7,29.48,ESE,112,0.0,0.0,81,0.00,,,0.00,meteohub,2013-06-05 09:03:00,
2013-06-05 04:09:00,60.8,54.9,29.48,ESE,112,2.0,2.0,81,0.00,,,0.00,meteohub,2013-06-05 09:09:00,
2013-06-05 04:14:00,60.8,54.9,29.48,ESE,112,1.0,2.0,81,0.00,,,0.00,meteohub,2013-06-05 09:14:00,
2013-06-05 04:19:00,61.0,55.4,29.48,ESE,112,0.0,2.0,82,0.00,,,0.00,meteohub,2013-06-05 09:19:00,
2013-06-05 04:24:00,61.0,55.0,29.48,NE,45,1.0,2.0,81,0.00,,,0.00,meteohub,2013-06-05 09:24:00,
2013-06-05 04:29:00,61.2,55.2,29.48,NE,45,2.0,2.0,81,0.00,,,0.00,meteohub,2013-06-05 09:29:00,
2013-06-05 04:34:00,61.2,55.2,29.48,ENE,68,2.0,2.0,81,0.00,,,0.00,meteohub,2013-06-05 09:34:00,
2013-06-05 04:40:00,61.3,55.8,29.48,ENE,68,0.0,3.0,82,0.00,,,0.00,meteohub,2013-06-05 09:40:00,
2013-06-05 04:45:00,61.2,55.2,29.48,NE,45,1.0,3.0,81,0.00,,,0.00,meteohub,2013-06-05 09:45:00,
2013-06-05 04:50:00,61.2,55.2,29.48,NE,45,2.0,2.0,81,0.00,,,0.00,meteohub,2013-06-05 09:50:00,
2013-06-05 04:55:00,61.3,55.8,29.48,NE,45,2.0,3.0,82,0.00,,,0.00,meteohub,2013-06-05 09:55:00,
2013-06-05 05:00:00,61.3,55.8,29.48,ENE,68,2.0,3.0,82,0.00,,,0.00,meteohub,2013-06-05 10:00:00,
2013-06-05 05:05:00,61.5,55.9,29.48,NE,45,2.0,2.0,82,0.00,,,0.00,meteohub,2013-06-05 10:05:00,
2013-06-05 05:10:00,61.3,55.8,29.48,NE,45,2.0,3.0,82,0.00,,,0.00,meteohub,2013-06-05 10:10:00,
2013-06-05 05:16:00,61.5,55.9,29.48,NE,45,2.0,3.0,82,0.00,,,0.00,meteohub,2013-06-05 10:16:00,
2013-06-05 05:21:00,61.5,55.9,29.48,NNE,22,2.0,3.0,82,0.00,,,0.00,meteohub,2013-06-05 10:21:00,
2013-06-05 05:26:00,61.7,56.1,29.48,NNE,22,2.0,3.0,82,0.00,,,0.00,meteohub,2013-06-05 10:26:00,
2013-06-05 05:31:00,61.9,56.3,29.51,NNE,22,2.0,2.0,82,0.00,,,0.00,meteohub,2013-06-05 10:31:00,
2013-06-05 05:37:00,61.9,56.3,29.51,ENE,68,0.0,2.0,82,0.00,,,0.00,meteohub,2013-06-05 10:37:00,
2013-06-05 05:42:00,61.9,55.9,29.51,ENE,68,2.0,3.0,81,0.00,,,0.00,meteohub,2013-06-05 10:42:00,
2013-06-05 05:47:00,62.1,56.5,29.51,NE,45,2.0,3.0,82,0.00,,,0.00,meteohub,2013-06-05 10:47:00,
2013-06-05 05:52:00,61.9,55.9,29.51,ENE,68,2.0,3.0,81,0.00,,,0.00,meteohub,2013-06-05 10:52:00,
2013-06-05 05:57:00,61.9,55.9,29.51,NE,45,0.0,3.0,81,0.00,,,0.00,meteohub,2013-06-05 10:57:00,
2013-06-05 06:02:00,62.1,56.1,29.51,NE,45,3.0,3.0,81,0.00,,,0.00,meteohub,2013-06-05 11:02:00,
2013-06-05 06:07:00,62.2,56.3,29.51,NE,45,3.0,3.0,81,0.00,,,0.00,meteohub,2013-06-05 11:07:00,
2013-06-05 06:12:00,62.2,56.3,29.51,North,0,3.0,4.0,81,0.00,,,0.00,meteohub,2013-06-05 11:12:00,
2013-06-05 06:17:00,62.4,56.5,29.48,NE,45,2.0,4.0,81,0.00,,,0.00,meteohub,2013-06-05 11:17:00,
2013-06-05 06:22:00,62.6,56.7,29.48,NE,45,3.0,4.0,81,0.00,,,0.00,meteohub,2013-06-05 11:22:00,
2013-06-05 06:27:00,62.6,56.3,29.48,NE,45,3.0,3.0,80,0.00,,,0.00,meteohub,2013-06-05 11:27:00,
2013-06-05 06:32:00,62.8,56.5,29.48,ENE,68,2.0,3.0,80,0.00,,,0.00,meteohub,2013-06-05 11:32:00,
2013-06-05 06:37:00,63.0,56.7,29.48,NE,45,3.0,3.0,80,0.00,,,0.00,meteohub,2013-06-05 11:37:00,
2013-06-05 06:42:00,63.1,56.8,29.48,ENE,68,2.0,3.0,80,0.00,,,0.00,meteohub,2013-06-05 11:42:00,
2013-06-05 06:47:00,63.7,57.4,29.48,NE,45,3.0,3.0,80,0.00,,,0.00,meteohub,2013-06-05 11:47:00,
2013-06-05 06:52:00,64.8,58.1,29.48,NE,45,2.0,4.0,79,0.00,,,0.00,meteohub,2013-06-05 11:52:00,
2013-06-05 06:57:00,64.9,57.9,29.48,ENE,68,2.0,4.0,78,0.00,,,0.00,meteohub,2013-06-05 11:57:00,
2013-06-05 07:02:00,65.3,57.9,29.48,NNE,22,2.0,4.0,77,0.00,,,0.00,meteohub,2013-06-05 12:02:00,
2013-06-05 07:07:00,65.5,57.7,29.48,East,90,3.0,4.0,76,0.00,,,0.00,meteohub,2013-06-05 12:07:00,
2013-06-05 07:12:00,65.8,57.7,29.48,ENE,68,4.0,4.0,75,0.00,,,0.00,meteohub,2013-06-05 12:12:00,
2013-06-05 07:17:00,65.8,57.0,29.48,NE,45,5.0,5.0,73,0.00,,,0.00,meteohub,2013-06-05 12:17:00,
2013-06-05 07:22:00,66.0,57.2,29.48,ENE,68,3.0,6.0,73,0.00,,,0.00,meteohub,2013-06-05 12:22:00,
2013-06-05 07:28:00,66.2,57.4,29.48,East,90,2.0,6.0,73,0.00,,,0.00,meteohub,2013-06-05 12:28:00,
2013-06-05 07:33:00,66.6,57.2,29.45,ENE,68,2.0,6.0,72,0.00,,,0.00,meteohub,2013-06-05 12:33:00,
2013-06-05 07:38:00,66.6,56.8,29.45,NE,45,2.0,4.0,71,0.00,,,0.00,meteohub,2013-06-05 12:38:00,
2013-06-05 07:43:00,66.7,57.0,29.45,ENE,68,4.0,4.0,71,0.00,,,0.00,meteohub,2013-06-05 12:43:00,
2013-06-05 07:48:00,66.9,57.2,29.48,ESE,112,2.0,5.0,71,0.00,,,0.00,meteohub,2013-06-05 12:48:00,
2013-06-05 07:53:00,66.9,57.2,29.48,East,90,4.0,5.0,71,0.00,,,0.00,meteohub,2013-06-05 12:53:00,
2013-06-05 07:58:00,67.6,57.6,29.48,ESE,112,3.0,6.0,70,0.00,,,0.00,meteohub,2013-06-05 12:58:00,
2013-06-05 08:04:00,68.0,57.9,29.45,NE,45,4.0,6.0,70,0.00,,,0.00,meteohub,2013-06-05 13:04:00,
2013-06-05 08:09:00,68.2,57.2,29.45,East,90,3.0,6.0,68,0.00,,,0.00,meteohub,2013-06-05 13:09:00,
2013-06-05 08:14:00,68.5,57.6,29.45,East,90,2.0,6.0,68,0.00,,,0.00,meteohub,2013-06-05 13:14:00,
2013-06-05 08:19:00,68.7,56.8,29.45,NE,45,3.0,6.0,66,0.00,,,0.00,meteohub,2013-06-05 13:19:00,
2013-06-05 08:24:00,69.3,57.4,29.45,SE,135,0.0,6.0,66,0.00,,,0.00,meteohub,2013-06-05 13:24:00,
2013-06-05 08:29:00,69.4,58.1,29.45,NE,45,0.0,5.0,67,0.00,,,0.00,meteohub,2013-06-05 13:29:00,
2013-06-05 08:35:00,69.8,57.6,29.45,East,90,4.0,6.0,65,0.00,,,0.00,meteohub,2013-06-05 13:35:00,
2013-06-05 08:40:00,70.2,57.4,29.45,NE,45,4.0,6.0,64,0.00,,,0.00,meteohub,2013-06-05 13:40:00,
2013-06-05 08:45:00,70.3,57.6,29.45,NE,45,0.0,6.0,64,0.00,,,0.00,meteohub,2013-06-05 13:45:00,
2013-06-05 08:50:00,70.7,57.9,29.45,NE,45,2.0,6.0,64,0.00,,,0.00,meteohub,2013-06-05 13:50:00,
2013-06-05 08:55:00,70.7,57.0,29.45,NNE,22,2.0,4.0,62,0.00,,,0.00,meteohub,2013-06-05 13:55:00,
2013-06-05 09:00:00,71.1,57.4,29.45,East,90,5.0,5.0,62,0.00,,,0.00,meteohub,2013-06-05 14:00:00,
2013-06-05 09:06:00,71.2,57.6,29.45,NE,45,1.0,5.0,62,0.00,,,0.00,meteohub,2013-06-05 14:06:00,
2013-06-05 09:11:00,71.2,57.0,29.45,ENE,68,4.0,5.0,61,0.00,,,0.00,meteohub,2013-06-05 14:11:00,
2013-06-05 09:16:00,71.8,58.1,29.45,SSW,202,4.0,5.0,62,0.00,,,0.00,meteohub,2013-06-05 14:16:00,
2013-06-05 09:21:00,71.6,57.9,29.45,NE,45,3.0,4.0,62,0.00,,,0.00,meteohub,2013-06-05 14:21:00,
2013-06-05 09:26:00,72.3,58.6,29.45,ENE,68,3.0,4.0,62,0.00,,,0.00,meteohub,2013-06-05 14:26:00,
2013-06-05 09:31:00,72.9,59.0,29.45,SSW,202,3.0,4.0,62,0.00,,,0.00,meteohub,2013-06-05 14:31:00,
2013-06-05 09:36:00,72.5,56.8,29.45,WSW,248,2.0,4.0,58,0.00,,,0.00,meteohub,2013-06-05 14:36:00,
2013-06-05 09:41:00,72.7,58.5,29.45,West,270,3.0,4.0,61,0.00,,,0.00,meteohub,2013-06-05 14:41:00,
2013-06-05 09:47:00,73.0,58.8,29.45,WSW,248,2.0,4.0,61,0.00,,,0.00,meteohub,2013-06-05 14:47:00,
2013-06-05 09:52:00,73.2,59.0,29.45,South,180,2.0,4.0,61,0.00,,,0.00,meteohub,2013-06-05 14:52:00,
2013-06-05 09:57:00,73.6,57.9,29.45,WSW,248,4.0,4.0,58,0.00,,,0.00,meteohub,2013-06-05 14:57:00,
2013-06-05 10:02:00,73.4,56.8,29.45,WSW,248,4.0,4.0,56,0.00,,,0.00,meteohub,2013-06-05 15:02:00,
2013-06-05 10:07:00,73.8,57.6,29.45,WNW,292,3.0,5.0,57,0.00,,,0.00,meteohub,2013-06-05 15:07:00,
2013-06-05 10:12:00,74.5,57.7,29.45,South,180,3.0,5.0,56,0.00,,,0.00,meteohub,2013-06-05 15:12:00,
2013-06-05 10:17:00,75.0,57.2,29.48,SW,225,4.0,5.0,54,0.00,,,0.00,meteohub,2013-06-05 15:17:00,
2013-06-05 10:23:00,75.4,58.6,29.48,NE,45,2.0,6.0,56,0.00,,,0.00,meteohub,2013-06-05 15:23:00,
2013-06-05 10:28:00,76.1,58.3,29.48,SW,225,3.0,6.0,54,0.00,,,0.00,meteohub,2013-06-05 15:28:00,
2013-06-05 10:33:00,76.1,57.7,29.45,SW,225,1.0,6.0,53,0.00,,,0.00,meteohub,2013-06-05 15:33:00,
2013-06-05 10:38:00,76.1,57.7,29.45,NNW,338,2.0,5.0,53,0.00,,,0.00,meteohub,2013-06-05 15:38:00,
2013-06-05 10:43:00,77.0,57.0,29.45,West,270,4.0,5.0,50,0.00,,,0.00,meteohub,2013-06-05 15:43:00,
2013-06-05 10:48:00,77.2,58.3,29.45,South,180,1.0,5.0,52,0.00,,,0.00,meteohub,2013-06-05 15:48:00,
2013-06-05 10:53:00,77.2,57.0,29.45,SW,225,2.0,5.0,50,0.00,,,0.00,meteohub,2013-06-05 15:53:00,
2013-06-05 10:58:00,77.7,58.1,29.45,SW,225,1.0,5.0,51,0.00,,,0.00,meteohub,2013-06-05 15:58:00,
2013-06-05 11:04:00,77.9,57.7,29.45,SSW,202,2.0,4.0,50,0.00,,,0.00,meteohub,2013-06-05 16:04:00,
2013-06-05 11:09:00,77.9,57.2,29.45,South,180,2.0,6.0,49,0.00,,,0.00,meteohub,2013-06-05 16:09:00,
2013-06-05 11:14:00,78.3,53.2,29.45,WSW,248,3.0,6.0,42,0.00,,,0.00,meteohub,2013-06-05 16:14:00,
2013-06-05 11:19:00,78.8,55.8,29.45,West,270,0.0,6.0,45,0.00,,,0.00,meteohub,2013-06-05 16:19:00,
2013-06-05 11:24:00,79.2,54.7,29.45,NW,315,3.0,6.0,43,0.00,,,0.00,meteohub,2013-06-05 16:24:00,
2013-06-05 11:29:00,78.8,54.5,29.45,WSW,248,1.0,6.0,43,0.00,,,0.00,meteohub,2013-06-05 16:29:00,
2013-06-05 11:35:00,78.6,54.9,29.45,SSW,202,4.0,4.0,44,0.00,,,0.00,meteohub,2013-06-05 16:35:00,
2013-06-05 11:40:00,78.3,54.0,29.45,SW,225,3.0,6.0,43,0.00,,,0.00,meteohub,2013-06-05 16:40:00,
2013-06-05 11:45:00,78.1,55.0,29.45,SSW,202,4.0,6.0,45,0.00,,,0.00,meteohub,2013-06-05 16:45:00,
2013-06-05 11:50:00,77.9,54.3,29.42,WSW,248,5.0,6.0,44,0.00,,,0.00,meteohub,2013-06-05 16:50:00,
2013-06-05 11:56:00,78.8,55.0,29.42,SSE,158,3.0,5.0,44,0.00,,,0.00,meteohub,2013-06-05 16:56:00,
2013-06-05 12:01:00,79.2,54.1,29.42,WSW,248,4.0,5.0,42,0.00,,,0.00,meteohub,2013-06-05 17:01:00,
2013-06-05 12:06:00,79.2,54.1,29.42,WSW,248,2.0,5.0,42,0.00,,,0.00,meteohub,2013-06-05 17:06:00,
2013-06-05 12:12:00,79.3,54.3,29.42,ENE,68,3.0,5.0,42,0.00,,,0.00,meteohub,2013-06-05 17:12:00,
2013-06-05 12:17:00,79.5,53.1,29.45,NE,45,3.0,5.0,40,0.00,,,0.00,meteohub,2013-06-05 17:17:00,
2013-06-05 12:22:00,79.7,54.0,29.45,South,180,2.0,5.0,41,0.00,,,0.00,meteohub,2013-06-05 17:22:00,
2013-06-05 12:27:00,80.2,55.0,29.45,SE,135,2.0,5.0,42,0.00,,,0.00,meteohub,2013-06-05 17:27:00,
2013-06-05 12:32:00,79.7,54.5,29.45,East,90,1.0,5.0,42,0.00,,,0.00,meteohub,2013-06-05 17:32:00,
2013-06-05 12:37:00,79.5,54.5,29.45,East,90,3.0,4.0,42,0.00,,,0.00,meteohub,2013-06-05 17:37:00,
2013-06-05 12:42:00,79.2,53.4,29.45,ESE,112,2.0,4.0,41,0.00,,,0.00,meteohub,2013-06-05 17:42:00,
2013-06-05 12:47:00,79.3,52.9,29.45,NNW,338,2.0,4.0,40,0.00,,,0.00,meteohub,2013-06-05 17:47:00,
2013-06-05 12:52:00,79.5,52.3,29.45,NW,315,0.0,4.0,39,0.00,,,0.00,meteohub,2013-06-05 17:52:00,
2013-06-05 12:57:00,79.3,54.3,29.45,South,180,3.0,4.0,42,0.00,,,0.00,meteohub,2013-06-05 17:57:00,
2013-06-05 13:03:00,79.9,54.7,29.45,WSW,248,3.0,4.0,42,0.00,,,0.00,meteohub,2013-06-05 18:03:00,
2013-06-05 13:08:00,80.1,52.9,29.45,North,0,2.0,4.0,39,0.00,,,0.00,meteohub,2013-06-05 18:08:00,
2013-06-05 13:13:00,79.3,51.6,29.45,NE,45,4.0,7.0,38,0.00,,,0.00,meteohub,2013-06-05 18:13:00,
2013-06-05 13:18:00,79.5,53.1,29.45,East,90,1.0,7.0,40,0.00,,,0.00,meteohub,2013-06-05 18:18:00,
2013-06-05 13:23:00,79.7,54.0,29.45,SE,135,1.0,7.0,41,0.00,,,0.00,meteohub,2013-06-05 18:23:00,
2013-06-05 13:28:00,79.5,53.8,29.45,ENE,68,2.0,6.0,41,0.00,,,0.00,meteohub,2013-06-05 18:28:00,
2013-06-05 13:33:00,79.5,53.1,29.42,NW,315,3.0,6.0,40,0.00,,,0.00,meteohub,2013-06-05 18:33:00,
2013-06-05 13:39:00,80.1,54.9,29.42,South,180,4.0,4.0,42,0.00,,,0.00,meteohub,2013-06-05 18:39:00,
2013-06-05 13:44:00,80.2,55.0,29.42,ESE,112,4.0,5.0,42,0.00,,,0.00,meteohub,2013-06-05 18:44:00,
2013-06-05 13:49:00,80.4,54.5,29.42,SW,225,3.0,5.0,41,0.00,,,0.00,meteohub,2013-06-05 18:49:00,
2013-06-05 13:54:00,80.6,54.1,29.42,SW,225,2.0,5.0,40,0.00,,,0.00,meteohub,2013-06-05 18:54:00,
2013-06-05 13:59:00,80.6,54.1,29.42,SW,225,1.0,6.0,40,0.00,,,0.00,meteohub,2013-06-05 18:59:00,
2013-06-05 14:05:00,81.1,55.2,29.39,SE,135,2.0,6.0,41,0.00,,,0.00,meteohub,2013-06-05 19:05:00,
2013-06-05 14:10:00,81.1,54.5,29.39,SSW,202,2.0,5.0,40,0.00,,,0.00,meteohub,2013-06-05 19:10:00,
2013-06-05 14:15:00,81.3,54.7,29.39,South,180,2.0,5.0,40,0.00,,,0.00,meteohub,2013-06-05 19:15:00,
2013-06-05 14:20:00,81.1,54.5,29.39,SE,135,0.0,5.0,40,0.00,,,0.00,meteohub,2013-06-05 19:20:00,
2013-06-05 14:25:00,81.0,53.6,29.39,ENE,68,2.0,5.0,39,0.00,,,0.00,meteohub,2013-06-05 19:25:00,
2013-06-05 14:30:00,81.1,55.2,29.39,South,180,2.0,3.0,41,0.00,,,0.00,meteohub,2013-06-05 19:30:00,
2013-06-05 14:36:00,81.1,53.8,29.39,SSW,202,6.0,6.0,39,0.00,,,0.00,meteohub,2013-06-05 19:36:00,
2013-06-05 14:41:00,81.0,50.7,29.39,SSW,202,3.0,6.0,35,0.00,,,0.00,meteohub,2013-06-05 19:41:00,
2013-06-05 14:46:00,81.7,55.0,29.36,SW,225,2.0,6.0,40,0.00,,,0.00,meteohub,2013-06-05 19:46:00,
2013-06-05 14:51:00,81.7,54.3,29.36,ESE,112,2.0,6.0,39,0.00,,,0.00,meteohub,2013-06-05 19:51:00,
2013-06-05 14:57:00,81.5,53.4,29.36,SW,225,1.0,6.0,38,0.00,,,0.00,meteohub,2013-06-05 19:57:00,
2013-06-05 15:02:00,81.3,54.7,29.39,West,270,1.0,6.0,40,0.00,,,0.00,meteohub,2013-06-05 20:02:00,
2013-06-05 15:07:00,81.0,53.6,29.39,South,180,2.0,6.0,39,0.00,,,0.00,meteohub,2013-06-05 20:07:00,
2013-06-05 15:12:00,81.7,54.3,29.39,SSW,202,2.0,3.0,39,0.00,,,0.00,meteohub,2013-06-05 20:12:00,
2013-06-05 15:17:00,81.9,54.5,29.39,East,90,2.0,4.0,39,0.00,,,0.00,meteohub,2013-06-05 20:17:00,
2013-06-05 15:22:00,81.5,53.4,29.39,NE,45,2.0,4.0,38,0.00,,,0.00,meteohub,2013-06-05 20:22:00,
2013-06-05 15:28:00,81.0,53.6,29.39,South,180,2.0,4.0,39,0.00,,,0.00,meteohub,2013-06-05 20:28:00,
2013-06-05 15:33:00,80.8,51.3,29.39,East,90,3.0,4.0,36,0.00,,,0.00,meteohub,2013-06-05 20:33:00,
2013-06-05 15:38:00,80.6,51.3,29.39,ENE,68,3.0,4.0,36,0.00,,,0.00,meteohub,2013-06-05 20:38:00,
2013-06-05 15:43:00,80.8,51.3,29.39,WNW,292,1.0,5.0,36,0.00,,,0.00,meteohub,2013-06-05 20:43:00,
2013-06-05 15:48:00,80.8,52.2,29.39,North,0,0.0,5.0,37,0.00,,,0.00,meteohub,2013-06-05 20:48:00,
2013-06-05 15:53:00,80.6,52.0,29.39,NE,45,1.0,5.0,37,0.00,,,0.00,meteohub,2013-06-05 20:53:00,
2013-06-05 15:58:00,81.1,52.3,29.39,SSW,202,2.0,4.0,37,0.00,,,0.00,meteohub,2013-06-05 20:58:00,
2013-06-05 16:04:00,81.7,53.6,29.36,NNE,22,3.0,4.0,38,0.00,,,0.00,meteohub,2013-06-05 21:04:00,
2013-06-05 16:09:00,81.5,50.4,29.36,NNE,22,1.0,4.0,34,0.00,,,0.00,meteohub,2013-06-05 21:09:00,
2013-06-05 16:14:00,81.5,52.0,29.36,East,90,2.0,4.0,36,0.00,,,0.00,meteohub,2013-06-05 21:14:00,
2013-06-05 16:19:00,81.5,52.0,29.36,SE,135,2.0,4.0,36,0.00,,,0.00,meteohub,2013-06-05 21:19:00,
2013-06-05 16:24:00,81.5,51.3,29.36,NNE,22,4.0,5.0,35,0.00,,,0.00,meteohub,2013-06-05 21:24:00,
2013-06-05 16:29:00,81.5,51.3,29.36,NE,45,4.0,5.0,35,0.00,,,0.00,meteohub,2013-06-05 21:29:00,
2013-06-05 16:35:00,81.1,50.2,29.36,ENE,68,5.0,5.0,34,0.00,,,0.00,meteohub,2013-06-05 21:35:00,
2013-06-05 16:40:00,80.6,49.6,29.36,ENE,68,4.0,6.0,34,0.00,,,0.00,meteohub,2013-06-05 21:40:00,
2013-06-05 16:45:00,80.1,50.0,29.36,NE,45,6.0,6.0,35,0.00,,,0.00,meteohub,2013-06-05 21:45:00,
2013-06-05 16:50:00,79.2,50.0,29.36,East,90,3.0,6.0,36,0.00,,,0.00,meteohub,2013-06-05 21:50:00,
2013-06-05 16:55:00,79.2,50.7,29.36,NE,45,4.0,6.0,37,0.00,,,0.00,meteohub,2013-06-05 21:55:00,
2013-06-05 17:00:00,79.3,51.6,29.36,NE,45,3.0,6.0,38,0.00,,,0.00,meteohub,2013-06-05 22:00:00,
2013-06-05 17:06:00,79.5,51.6,29.36,NE,45,2.0,4.0,38,0.00,,,0.00,meteohub,2013-06-05 22:06:00,
2013-06-05 17:11:00,79.3,51.6,29.36,NE,45,3.0,4.0,38,0.00,,,0.00,meteohub,2013-06-05 22:11:00,
2013-06-05 17:16:00,79.0,51.3,29.36,ENE,68,2.0,4.0,38,0.00,,,0.00,meteohub,2013-06-05 22:16:00,
2013-06-05 17:21:00,79.2,52.2,29.36,ENE,68,1.0,3.0,39,0.00,,,0.00,meteohub,2013-06-05 22:21:00,
2013-06-05 17:26:00,79.5,52.3,29.36,ENE,68,3.0,3.0,39,0.00,,,0.00,meteohub,2013-06-05 22:26:00,
2013-06-05 17:31:00,79.5,53.1,29.34,SSW,202,4.0,4.0,40,0.00,,,0.00,meteohub,2013-06-05 22:31:00,
2013-06-05 17:37:00,79.3,52.2,29.34,ENE,68,2.0,4.0,39,0.00,,,0.00,meteohub,2013-06-05 22:37:00,
2013-06-05 17:42:00,79.0,52.7,29.34,ESE,112,0.0,4.0,40,0.00,,,0.00,meteohub,2013-06-05 22:42:00,
2013-06-05 17:47:00,78.6,52.3,29.34,NE,45,2.0,4.0,40,0.00,,,0.00,meteohub,2013-06-05 22:47:00,
2013-06-05 17:52:00,78.6,52.3,29.36,East,90,0.0,4.0,40,0.00,,,0.00,meteohub,2013-06-05 22:52:00,
2013-06-05 17:57:00,78.4,52.2,29.36,NE,45,0.0,4.0,40,0.00,,,0.00,meteohub,2013-06-05 22:57:00,
2013-06-05 18:02:00,78.3,51.3,29.34,ESE,112,0.0,3.0,39,0.00,,,0.00,meteohub,2013-06-05 23:02:00,
2013-06-05 18:07:00,78.1,51.8,29.34,East,90,0.0,3.0,40,0.00,,,0.00,meteohub,2013-06-05 23:07:00,
2013-06-05 18:12:00,77.9,52.3,29.34,SW,225,0.0,3.0,41,0.00,,,0.00,meteohub,2013-06-05 23:12:00,
2013-06-05 18:17:00,77.9,53.1,29.34,South,180,2.0,3.0,42,0.00,,,0.00,meteohub,2013-06-05 23:17:00,
2013-06-05 18:22:00,77.9,53.1,29.34,SW,225,0.0,3.0,42,0.00,,,0.00,meteohub,2013-06-05 23:22:00,
2013-06-05 18:27:00,77.7,52.9,29.34,South,180,0.0,3.0,42,0.00,,,0.00,meteohub,2013-06-05 23:27:00,
2013-06-05 18:32:00,77.7,52.2,29.34,South,180,1.0,2.0,41,0.00,,,0.00,meteohub,2013-06-05 23:32:00,
2013-06-05 18:37:00,77.7,52.2,29.34,ESE,112,1.0,1.0,41,0.00,,,0.00,meteohub,2013-06-05 23:37:00,
2013-06-05 18:42:00,77.7,52.2,29.34,NE,45,2.0,2.0,41,0.00,,,0.00,meteohub,2013-06-05 23:42:00,
2013-06-05 18:47:00,77.5,52.0,29.34,ESE,112,2.0,2.0,41,0.00,,,0.00,meteohub,2013-06-05 23:47:00,
2013-06-05 18:52:00,77.4,51.8,29.34,NNE,22,2.0,2.0,41,0.00,,,0.00,meteohub,2013-06-05 23:52:00,
2013-06-05 18:57:00,76.6,51.8,29.34,NNE,22,0.0,3.0,42,0.00,,,0.00,meteohub,2013-06-05 23:57:00,
2013-06-05 19:03:00,76.3,52.7,29.34,NNE,22,0.0,3.0,44,0.00,,,0.00,meteohub,2013-06-06 00:03:00,
2013-06-05 19:08:00,75.9,53.1,29.34,NNE,22,0.0,3.0,45,0.00,,,0.00,meteohub,2013-06-06 00:08:00,
2013-06-05 19:13:00,75.9,53.1,29.34,NNE,22,0.0,0.0,45,0.00,,,0.00,meteohub,2013-06-06 00:13:00,
2013-06-05 19:18:00,75.7,53.4,29.36,NNE,22,0.0,0.0,46,0.00,,,0.00,meteohub,2013-06-06 00:18:00,
2013-06-05 19:23:00,75.6,53.4,29.36,NNE,22,0.0,0.0,46,0.00,,,0.00,meteohub,2013-06-06 00:23:00,
2013-06-05 19:28:00,75.4,53.8,29.36,NNE,22,0.0,0.0,47,0.00,,,0.00,meteohub,2013-06-06 00:28:00,
2013-06-05 19:34:00,75.4,54.3,29.36,NNE,22,0.0,0.0,48,0.00,,,0.00,meteohub,2013-06-06 00:34:00,
2013-06-05 19:39:00,75.0,54.5,29.36,NNE,22,0.0,0.0,49,0.00,,,0.00,meteohub,2013-06-06 00:39:00,
2013-06-05 19:44:00,74.8,55.6,29.36,NNE,22,0.0,0.0,51,0.00,,,0.00,meteohub,2013-06-06 00:44:00,
2013-06-05 19:49:00,74.5,55.8,29.36,NNE,22,0.0,0.0,52,0.00,,,0.00,meteohub,2013-06-06 00:49:00,
2013-06-05 19:54:00,74.3,56.1,29.36,NNE,22,0.0,0.0,53,0.00,,,0.00,meteohub,2013-06-06 00:54:00,
2013-06-05 20:00:00,73.9,56.3,29.36,NNE,22,0.0,0.0,54,0.00,,,0.00,meteohub,2013-06-06 01:00:00,
2013-06-05 20:05:00,73.9,55.8,29.36,NNE,22,0.0,0.0,53,0.00,,,0.00,meteohub,2013-06-06 01:05:00,
2013-06-05 20:10:00,73.8,55.6,29.36,NNE,22,0.0,0.0,53,0.00,,,0.00,meteohub,2013-06-06 01:10:00,
2013-06-05 20:15:00,73.6,55.4,29.36,NNE,22,0.0,0.0,53,0.00,,,0.00,meteohub,2013-06-06 01:15:00,
2013-06-05 20:20:00,73.6,55.4,29.36,NNE,22,0.0,0.0,53,0.00,,,0.00,meteohub,2013-06-06 01:20:00,
2013-06-05 20:26:00,73.4,55.8,29.36,NNE,22,0.0,0.0,54,0.00,,,0.00,meteohub,2013-06-06 01:26:00,
2013-06-05 20:31:00,73.4,56.8,29.36,NNE,22,0.0,0.0,56,0.00,,,0.00,meteohub,2013-06-06 01:31:00,
2013-06-05 20:36:00,73.2,57.0,29.36,NNE,22,0.0,0.0,57,0.00,,,0.00,meteohub,2013-06-06 01:36:00,
2013-06-05 20:41:00,73.2,57.0,29.36,NNE,22,0.0,0.0,57,0.00,,,0.00,meteohub,2013-06-06 01:41:00,
2013-06-05 20:46:00,73.4,56.8,29.36,NE,45,2.0,2.0,56,0.00,,,0.00,meteohub,2013-06-06 01:46:00,
2013-06-05 20:52:00,73.4,57.2,29.34,North,0,2.0,2.0,57,0.00,,,0.00,meteohub,2013-06-06 01:52:00,
2013-06-05 20:57:00,73.6,56.8,29.34,NNW,338,2.0,3.0,56,0.00,,,0.00,meteohub,2013-06-06 01:57:00,
2013-06-05 21:02:00,73.6,55.9,29.36,NW,315,2.0,3.0,54,0.00,,,0.00,meteohub,2013-06-06 02:02:00,
2013-06-05 21:07:00,73.6,55.4,29.36,NW,315,2.0,3.0,53,0.00,,,0.00,meteohub,2013-06-06 02:07:00,
2013-06-05 21:12:00,73.6,55.9,29.36,North,0,3.0,3.0,54,0.00,,,0.00,meteohub,2013-06-06 02:12:00,
2013-06-05 21:17:00,73.6,55.9,29.36,North,0,2.0,3.0,54,0.00,,,0.00,meteohub,2013-06-06 02:17:00,
2013-06-05 21:22:00,73.4,56.8,29.36,NNW,338,3.0,3.0,56,0.00,,,0.00,meteohub,2013-06-06 02:22:00,
2013-06-05 21:27:00,73.4,56.8,29.36,NW,315,2.0,3.0,56,0.00,,,0.00,meteohub,2013-06-06 02:27:00,
2013-06-05 21:32:00,73.2,57.0,29.36,NW,315,2.0,3.0,57,0.00,,,0.00,meteohub,2013-06-06 02:32:00,
2013-06-05 21:37:00,73.4,56.8,29.36,North,0,1.0,3.0,56,0.00,,,0.00,meteohub,2013-06-06 02:37:00,
2013-06-05 21:42:00,73.4,57.2,29.36,NE,45,2.0,2.0,57,0.00,,,0.00,meteohub,2013-06-06 02:42:00,
2013-06-05 21:47:00,73.0,58.3,29.36,NE,45,2.0,2.0,60,0.00,,,0.00,meteohub,2013-06-06 02:47:00,
2013-06-05 21:52:00,72.7,58.5,29.36,NE,45,0.0,2.0,61,0.00,,,0.00,meteohub,2013-06-06 02:52:00,
2013-06-05 21:57:00,72.3,59.0,29.36,ESE,112,0.0,2.0,63,0.00,,,0.00,meteohub,2013-06-06 02:57:00,
2013-06-05 22:02:00,72.0,58.6,29.36,ESE,112,0.0,2.0,63,0.00,,,0.00,meteohub,2013-06-06 03:02:00,
2013-06-05 22:08:00,72.0,58.3,29.36,SW,225,0.0,0.0,62,0.00,,,0.00,meteohub,2013-06-06 03:08:00,
2013-06-05 22:13:00,72.0,58.6,29.36,SW,225,0.0,0.0,63,0.00,,,0.00,meteohub,2013-06-06 03:13:00,
2013-06-05 22:18:00,72.0,58.6,29.36,SW,225,0.0,0.0,63,0.00,,,0.00,meteohub,2013-06-06 03:18:00,
2013-06-05 22:23:00,71.8,59.0,29.36,SW,225,0.0,0.0,64,0.00,,,0.00,meteohub,2013-06-06 03:23:00,
2013-06-05 22:28:00,71.8,59.0,29.36,SW,225,0.0,0.0,64,0.00,,,0.00,meteohub,2013-06-06 03:28:00,
2013-06-05 22:33:00,71.6,59.2,29.36,SW,225,0.0,0.0,65,0.00,,,0.00,meteohub,2013-06-06 03:33:00,
2013-06-05 22:38:00,71.6,59.2,29.36,West,270,0.0,0.0,65,0.00,,,0.00,meteohub,2013-06-06 03:38:00,
2013-06-05 22:43:00,71.4,59.9,29.36,West,270,0.0,0.0,67,0.00,,,0.00,meteohub,2013-06-06 03:43:00,
2013-06-05 22:49:00,71.4,60.3,29.36,West,270,0.0,0.0,68,0.00,,,0.00,meteohub,2013-06-06 03:49:00,
2013-06-05 22:54:00,71.2,60.1,29.36,West,270,0.0,0.0,68,0.00,,,0.00,meteohub,2013-06-06 03:54:00,
2013-06-05 22:59:00,71.1,59.9,29.36,West,270,0.0,0.0,68,0.00,,,0.00,meteohub,2013-06-06 03:59:00,
2013-06-05 23:01:00,71.1,59.9,29.36,West,270,0.0,0.0,68,0.00,,,0.00,meteohub,2013-06-06 04:01:00,
2013-06-05 23:02:00,71.1,60.4,29.36,West,270,0.0,0.0,69,0.00,,,0.00,meteohub,2013-06-06 04:02:00,
2013-06-05 23:03:00,71.1,60.4,29.36,West,270,0.0,0.0,69,0.00,,,0.00,meteohub,2013-06-06 04:03:00,
2013-06-05 23:09:00,71.2,60.6,29.36,North,0,1.0,0.0,69,0.00,,,0.00,meteohub,2013-06-06 04:09:00,
2013-06-05 23:14:00,71.1,60.8,29.36,North,0,1.0,1.0,70,0.00,,,0.00,meteohub,2013-06-06 04:14:00,
2013-06-05 23:19:00,71.1,61.2,29.36,North,0,2.0,2.0,71,0.00,,,0.00,meteohub,2013-06-06 04:19:00,
2013-06-05 23:24:00,71.1,61.2,29.36,North,0,0.0,1.0,71,0.00,,,0.00,meteohub,2013-06-06 04:24:00,
2013-06-05 23:30:00,70.9,61.3,29.36,North,0,0.0,2.0,72,0.00,,,0.00,meteohub,2013-06-06 04:30:00,
2013-06-05 23:35:00,70.7,61.2,29.34,North,0,0.0,2.0,72,0.00,,,0.00,meteohub,2013-06-06 04:35:00,
2013-06-05 23:40:00,70.5,61.5,29.34,North,0,0.0,0.0,73,0.00,,,0.00,meteohub,2013-06-06 04:40:00,
2013-06-05 23:45:00,70.2,61.2,29.34,West,270,2.0,2.0,73,0.00,,,0.00,meteohub,2013-06-06 04:45:00,
2013-06-05 23:50:00,70.2,61.9,29.36,West,270,5.0,5.0,75,0.00,,,0.00,meteohub,2013-06-06 04:50:00,
2013-06-05 23:56:00,70.2,61.2,29.36,West,270,2.0,6.0,73,0.00,,,0.00,meteohub,2013-06-06 04:56:00,